Thursday, August 21, 2014
02:30 UTC
  |  Log In   |  Register Free
Airport Search:

Dawson Municipal Airport
(16J)

Dawson Municipal Airport Diagram
No Airport Diagram Available

FAA data valid effective July 24, 2014 until September 18, 2014 (unless otherwise noted).

 
 
 
 
 
 
 
 
 
 
 
 
 
 

Current Aviation Weather for Dawson Municipal Airport (16J)

The most recent METAR observation for KABY was updated at: 1853 UTC
METAR Summary (Translated METAR)
KABY
281853Z 25013G19KT 10SM CLR 35/22 A2994 RMK AO2 SLP136 T03500222
KMGR
(33.7 nm SE from KABY)
281835Z AUTO 27011G19KT 10SM CLR 35/21 A2996 RMK AO2 LTG DSNT S AND SW
TAF Summary (Translated TAF)
KABY
201720Z 2018/2118 28007KT P6SM FEW030 FM210200 31004KT P6SM SKC
  Airport Weather Conditions for 16J

Current weather conditions are
not available for 16J


The nearest NOAA weather station
is at ABY, (17 nm SE from 16J)
  
 Current Weather at ABY
80° F
Fair
Southwest winds at 4.6 mph
ABY NOAA Radar

Pressure: 30.09 in
Humidity: 71%
Wind: Southwest at 4.6 MPH (4 KT)
Dew Point: 70.0°F
Visibility: 10.00 mi


Airport Weather Forecast for 16J

Translated METAR and TAF for KABY
Translated METAR for KABY (0223 UTC 21 August 2014)
found at http://aviationweather.gov/adds/metars/
 
METAR text: KABY 210153Z 22004KT 10SM CLR 27/21 A3009 RMK AO2 SLP186 T02670211
Conditions at: KABY (ALBANY , GA, US) observed 0153 UTC 21 August 2014
Temperature: 26.7°C (80°F)
Dewpoint: 21.1°C (70°F) [RH = 71%]
Pressure (altimeter): 30.09 inches Hg (1019.0 mb)
[Sea-level pressure: 1018.6 mb]
Winds: from the SW (220 degrees) at 5 MPH (4 knots; 2.1 m/s)
Visibility: 10 or more miles (16+ km)
Ceiling: at least 12,000 feet AGL
Clouds: sky clear below 12,000 feet AGL
Weather: no significant weather observed at this time
Translated TAF for KABY
Forecast for: KABY (ALBANY , GA, US)
TAF Text: KABY 202330Z 2100/2124 27005KT P6SM VCTS SCT060CB
Forecast period: 0000 to 0200 UTC 21 August 2014
Forecast type: FROM: standard forecast or significant change
Winds: from the W (270 degrees) at 6 MPH (5 knots; 2.6 m/s)
Visibility: 6 or more miles (10+ km)
Clouds: scattered clouds at 6000 feet AGL
Weather: VCTS  (thunderstorm in vicinity)
TAF Text: FM210200 00000KT P6SM SCT250
Forecast period: 0200 UTC 21 August 2014 to 0000 UTC 22 August 2014
Forecast type: FROM: standard forecast or significant change
Winds: calm
Visibility: 6 or more miles (10+ km)
Clouds: scattered clouds at 25000 feet AGL
Weather: no significant weather forecast for this period

Find All Airport Services Find A Hotel Find A Rental Car Find A Golf Course Find A Restaurant $100 Hamburger



FBO's on the Field
FBO Company Facility Photos Services Transportation Aviation Fuel Prices: Prices include tax
Catering Weather Repair Courtesy Rental Type 100LL JetA JetA+ MOGAS 8087
 
Dawson/Terrell Co. Airport

This FBO has not yet been rated
FS:Independent
Last Updated: Jul-23
Login to update fuel prices
SS:
Contact Dawson/Terrell Co. AirportMore FBO Information
 
Add another FBO Facility Photos Catering Weather Repair Courtesy Rental Type 100LL JetA JetA+ MOGAS 8087
Services Transportation Aviation Fuel Prices: Prices include tax


GlobalAir.com Airport Resource Center model-print
model-print
model-print
model-print